[[{"header":{"parameterUnit":"m.s-1","parameterCategory":2,"la1":30.2991,"la2":30.254,"lo1":-89.0895,"lo2":-89.0444,"dy":0.0017,"dx":0.0017,"nx":28,"ny":28,"refTime":"2023-09-21T03:00:00:Z","depth":"0","parameterNumber":2,"parameterNumberName":"U-component_of_CURRENTS"},"data":[0,0,0,0,0,0,0,0,0,0,0,0,0,0,0,0,0,0,0,0,0,0,0,0,0,0,0,0,0,0,0,0,0,0,0,0,0,0,0,0,0,0,0,0,0,0,0,0,0,0,0,0,0,0,0,0,0,0,0.2285,0.2286,0,0.2293,0.2293,0.2293,0.2281,0.2281,0.2281,0.2281,0.2267,0.2267,0.2267,0,0,0,0,0,0,0,0,0,0,0,0,0,0.2255,0.2256,0.2285,0.2286,0.2286,0.2293,0.2293,0.2293,0.2281,0.2281,0.2281,0.2281,0.2267,0.2267,0.2267,0,0,0,0,0,0,0,0,0,0,0,0,0,0.2264,0.2256,0.2285,0.2283,0.2283,0.2293,0.2293,0.2293,0.2281,0.2281,0.2281,0.2281,0.2267,0.2267,0.2267,0.227,0,0,0.2266,0.2266,0,0,0,0,0,0,0,0,0.2263,0.2265,0.2283,0.2283,0.2283,0.2288,0.2278,0.2285,0.2282,0.2279,0.2281,0.2281,0.2274,0.2273,0.2272,0.2269,0.2269,0.2266,0.2266,0.2265,0.2265,0,0,0,0,0,0,0,0.2263,0.2264,0.2286,0.2283,0.2284,0.228,0.2281,0.2279,0.2276,0.2279,0.2279,0.2284,0.2274,0.2272,0.2272,0.2269,0.2266,0.2266,0.2265,0.2265,0.2309,0.2311,0,0,0,0,0,0,0.2268,0.2264,0.2286,0.2286,0.2275,0.2281,0.2282,0.2285,0.2276,0.2276,0.2285,0.2284,0.2273,0.2272,0.2271,0.2312,0.2265,0.2265,0.2265,0.2308,0.231,0.2311,0,0,0,0,0,0,0.2267,0.2269,0.2285,0.2277,0.2279,0.2282,0.2286,0.2285,0.2289,0.2281,0.2279,0.229,0.2273,0.2271,0.2282,0.231,0.2265,0.2265,0.2306,0.2308,0.231,0.2369,0,0,0,0,0,0,0.2266,0.2269,0.2272,0.2278,0.228,0.2299,0.2286,0.2286,0.2294,0.2293,0.2285,0.2283,0.2272,0.2282,0.2281,0.2308,0.2265,0.2305,0.2307,0.231,0.2365,0.2373,0.2379,0,0,0,0,0,0.2265,0.227,0.2272,0.2275,0.2284,0.23,0.2301,0.23,0.2294,0.2301,0.2299,0.2283,0.2298,0.2283,0.2281,0.2309,0.2303,0.2307,0.2309,0.2362,0.2371,0.2379,0,0,0,0,0,0,0.2255,0.227,0.2272,0.228,0.2294,0.23,0.2306,0.2306,0.2309,0.2308,0.2295,0.2294,0.2317,0.2304,0.2288,0.2331,0.23,0.2303,0.2341,0.235,0.2356,0.2367,0.2264,0,0,0,0,0,0.2256,0.2266,0.228,0.2288,0.2297,0.2303,0.2308,0.2312,0.2317,0.2317,0.2313,0.2315,0.2328,0.2331,0.2335,0.2352,0.2363,0.2372,0.2379,0.2385,0.2393,0.2433,0.2444,0.2321,0.2321,0.2321,0,0,0.2253,0.2264,0.2268,0.2287,0.2296,0.2319,0.2305,0.2321,0.2341,0.2316,0.2337,0.2338,0.2339,0.2364,0.2373,0.2356,0.2429,0.2388,0.2393,0.2399,0.2437,0.245,0.246,0.2323,0.2323,0.2322,0,0,0.226,0.2265,0.228,0.2297,0.232,0.233,0.2338,0.2351,0.2358,0.2379,0.2375,0.2394,0.2399,0.2414,0.2421,0.2468,0.2466,0.247,0.2511,0.255,0.256,0.257,0.2615,0.2627,0.2471,0.2471,0.2472,0,0.2256,0.2276,0.2286,0.2311,0.2326,0.2339,0.2361,0.2378,0.2393,0.2407,0.2393,0.2431,0.2428,0.2474,0.2493,0.2485,0.2507,0.2478,0.2559,0.2569,0.2577,0.2621,0.2634,0.2475,0.2474,0.2474,0.2474,0,0.2278,0.2297,0.2309,0.2346,0.2365,0.2386,0.2415,0.2437,0.2445,0.2461,0.2501,0.2505,0.2528,0.2536,0.2528,0.2592,0.259,0.2565,0.2538,0.2593,0.2636,0.2649,0.2479,0.2478,0.2477,0.2476,0,0,0.2257,0.2313,0.2316,0.2339,0.2383,0.2401,0.2446,0.2486,0.2521,0.254,0.2583,0.2611,0.2615,0.2624,0.2624,0.2657,0.2739,0.264,0.2641,0.2685,0.2838,0.282,0.2832,0.2729,0.2731,0.2733,0.2849,0,0.2268,0.2316,0.2341,0.2387,0.2413,0.2446,0.2487,0.2528,0.256,0.2608,0.2631,0.2669,0.265,0.2667,0.2702,0.2728,0.2774,0.2711,0.2778,0.278,0.2757,0.2846,0.2765,0.286,0.2862,0.2864,0.2865,0,0.2274,0.2309,0.235,0.2411,0.2425,0.2457,0.2523,0.2565,0.2639,0.2664,0.2713,0.2731,0.2795,0.2761,0.2852,0.2813,0.2838,0.2853,0.2858,0.2827,0.2785,0.2803,0.2883,0.284,0.2885,0.2883,0.2882,0,0.2244,0.231,0.2341,0.2362,0.2436,0.2462,0.2506,0.2578,0.262,0.2707,0.2748,0.2813,0.2858,0.2898,0.294,0.2902,0.3039,0.2984,0.2996,0.2995,0.2933,0.2922,0.2977,0.3056,0.3056,0.3056,0.3055,0,0.2236,0.2261,0.2332,0.235,0.2391,0.2453,0.2507,0.2561,0.2651,0.2699,0.2776,0.2831,0.2894,0.2971,0.2987,0.3052,0.3083,0.3032,0.3033,0.2952,0.2942,0.2904,0.2872,0.306,0.3059,0.3058,0.3058,0,0.2187,0.2235,0.2274,0.2353,0.2373,0.2404,0.2492,0.2535,0.2637,0.2708,0.2738,0.2872,0.2967,0.3037,0.3121,0.312,0.3098,0.3181,0.309,0.3077,0.3004,0.2978,0.2919,0.2817,0.3203,0.3203,0.3204,0,0.2162,0.218,0.2253,0.2271,0.2301,0.2358,0.239,0.25,0.2548,0.2715,0.2742,0.2889,0.2966,0.3127,0.316,0.3224,0.312,0.3174,0.3075,0.3021,0.2992,0.286,0.2768,0.3026,0.3025,0.3024,0.3024,0,0.2111,0.2136,0.2166,0.2205,0.2237,0.2277,0.2338,0.2375,0.25,0.2583,0.2699,0.2793,0.2977,0.3033,0.3153,0.3165,0.3034,0.3154,0.3123,0.2892,0.2727,0.2622,0.2937,0.3015,0.3016,0.3017,0.3017,0.3017,0.2056,0.206,0.2097,0.2125,0.2156,0.2177,0.2179,0.2258,0.2327,0.2422,0.2572,0.2686,0.2879,0.3041,0.3045,0.3042,0.2975,0.2967,0.2954,0.2836,0.2686,0.299,0.3044,0.3045,0.3046,0.3047,0.3047,0,0.198,0.1995,0.2017,0.2035,0.2026,0.2081,0.212,0.2111,0.2141,0.2294,0.2385,0.2589,0.2709,0.2846,0.2965,0.2888,0.2715,0.281,0.2612,0.2537,0.2853,0.2793,0.2765,0.2765,0.2765,0.2765,0.2765,0.2765,0.1939,0.1926,0.194,0.1896,0.1906,0.1859,0.1859,0.187,0.1958,0.2069,0.2199,0.2354,0.2677,0.2895,0.2905,0.2813,0.2575,0.2473,0.2427,0.2686,0.2698,0.271,0.2648,0.2589,0.2589,0.2,0.1996,0.1993]},{"header":{"parameterUnit":"m.s-1","parameterCategory":2,"la1":30.2991,"la2":30.254,"lo1":-89.0895,"lo2":-89.0444,"dy":0.0017,"dx":0.0017,"nx":28,"ny":28,"refTime":"2023-09-21T03:00:00:Z","depth":"0","parameterNumber":3,"parameterNumberName":"V-component_of_CURRENTS"},"data":[0,0,0,0,0,0,0,0,0,0,0,0,0,0,0,0,0,0,0,0,0,0,0,0,0,0,0,0,0,0,0,0,0,0,0,0,0,0,0,0,0,0,0,0,0,0,0,0,0,0,0,0,0,0,0,0,0,0,-0.0225,-0.0226,0,-0.0301,-0.0302,-0.0303,-0.0344,-0.0344,-0.0344,-0.0344,-0.0431,-0.0433,-0.0436,0,0,0,0,0,0,0,0,0,0,0,0,0,-0.0164,-0.0165,-0.0225,-0.0226,-0.0227,-0.0301,-0.0302,-0.0303,-0.0344,-0.0344,-0.0344,-0.0344,-0.043,-0.0433,-0.0436,0,0,0,0,0,0,0,0,0,0,0,0,0,-0.0211,-0.0165,-0.0225,-0.0255,-0.0258,-0.03,-0.0302,-0.0303,-0.0344,-0.0344,-0.0344,-0.0344,-0.0429,-0.0433,-0.0436,-0.0459,0,0,-0.0447,-0.0449,0,0,0,0,0,0,0,0,-0.0209,-0.0214,-0.025,-0.0253,-0.0257,-0.0312,-0.0312,-0.0355,-0.0344,-0.0313,-0.0344,-0.0344,-0.0391,-0.0398,-0.0414,-0.0463,-0.0467,-0.0447,-0.0449,-0.0451,-0.0452,0,0,0,0,0,0,0,-0.0205,-0.0211,-0.0256,-0.0251,-0.0255,-0.0281,-0.0287,-0.0321,-0.0353,-0.0316,-0.0318,-0.0325,-0.0393,-0.0411,-0.0417,-0.0468,-0.0447,-0.045,-0.0453,-0.0454,-0.0546,-0.0546,0,0,0,0,0,0,-0.0191,-0.0208,-0.0254,-0.0259,-0.023,-0.0282,-0.0289,-0.0295,-0.0352,-0.036,-0.0325,-0.0326,-0.0405,-0.0412,-0.042,-0.0448,-0.0451,-0.0454,-0.0456,-0.0545,-0.0546,-0.0546,0,0,0,0,0,0,-0.0189,-0.0194,-0.0251,-0.0234,-0.0243,-0.0282,-0.0289,-0.0297,-0.031,-0.0359,-0.0367,-0.033,-0.0405,-0.0415,-0.0453,-0.0452,-0.0456,-0.0459,-0.0545,-0.0545,-0.0546,-0.0506,0,0,0,0,0,0,-0.0187,-0.0193,-0.0193,-0.0233,-0.0243,-0.0268,-0.0289,-0.0298,-0.0314,-0.0317,-0.0366,-0.0374,-0.0406,-0.0447,-0.0456,-0.0457,-0.0462,-0.0545,-0.0545,-0.0546,-0.0507,-0.0505,-0.0503,0,0,0,0,0,-0.0184,-0.0183,-0.0192,-0.0198,-0.0241,-0.0268,-0.0276,-0.0305,-0.0314,-0.0318,-0.0357,-0.0373,-0.0457,-0.0451,-0.0461,-0.0462,-0.0544,-0.0545,-0.0546,-0.0508,-0.0505,-0.0504,0,0,0,0,0,0,-0.0156,-0.0188,-0.0199,-0.0207,-0.0231,-0.0274,-0.0281,-0.03,-0.0334,-0.0337,-0.0382,-0.0393,-0.0425,-0.0451,-0.0442,-0.0491,-0.0501,-0.0504,-0.0469,-0.0467,-0.0466,-0.0447,-0.0465,0,0,0,0,0,-0.0148,-0.0155,-0.0189,-0.0194,-0.0204,-0.0241,-0.0255,-0.0274,-0.0309,-0.0324,-0.036,-0.0399,-0.0437,-0.0457,-0.0492,-0.0521,-0.0538,-0.0528,-0.0526,-0.0524,-0.0517,-0.0554,-0.0554,-0.0548,-0.0548,-0.0548,0,0,-0.0139,-0.0156,-0.0161,-0.0188,-0.021,-0.0222,-0.0249,-0.0266,-0.0278,-0.0328,-0.0355,-0.0394,-0.0443,-0.0477,-0.0492,-0.0498,-0.0533,-0.0525,-0.0523,-0.0517,-0.0554,-0.0555,-0.0555,-0.0549,-0.0549,-0.0549,0,0,-0.0122,-0.0137,-0.0138,-0.0155,-0.0181,-0.0205,-0.0206,-0.0245,-0.0263,-0.0295,-0.0335,-0.0373,-0.0427,-0.0465,-0.0491,-0.0501,-0.0522,-0.051,-0.0488,-0.0524,-0.0524,-0.0525,-0.0533,-0.0535,-0.0509,-0.0509,-0.0509,0,-0.0108,-0.0113,-0.0142,-0.0146,-0.0153,-0.0192,-0.0192,-0.022,-0.0267,-0.0279,-0.0295,-0.0379,-0.0421,-0.0465,-0.0473,-0.0496,-0.051,-0.049,-0.052,-0.0521,-0.0523,-0.0531,-0.0534,-0.0507,-0.0508,-0.0508,-0.0508,0,-0.0094,-0.0097,-0.0097,-0.0114,-0.0127,-0.0133,-0.0168,-0.0185,-0.021,-0.024,-0.0282,-0.0347,-0.0392,-0.0416,-0.0451,-0.0483,-0.0487,-0.0512,-0.0521,-0.052,-0.053,-0.0533,-0.0505,-0.0505,-0.0506,-0.0506,0,0,-0.006,-0.0082,-0.008,-0.0078,-0.0108,-0.0114,-0.0131,-0.0156,-0.0156,-0.0214,-0.0223,-0.0307,-0.0336,-0.0367,-0.0417,-0.0456,-0.0482,-0.0485,-0.0488,-0.0484,-0.054,-0.0516,-0.0517,-0.0513,-0.0514,-0.0514,-0.0537,0,-0.0037,-0.003,-0.005,-0.0041,-0.0038,-0.0071,-0.0076,-0.0104,-0.0135,-0.0154,-0.0226,-0.0256,-0.0319,-0.0335,-0.0388,-0.0456,-0.0491,-0.0472,-0.0549,-0.055,-0.0522,-0.0521,-0.0501,-0.0517,-0.054,-0.0541,-0.0541,0,-0.0011,-0.0009,0.0008,0.0007,0.0007,0.0008,0.0004,-0.001,-0.0052,-0.0076,-0.0127,-0.0176,-0.0243,-0.0292,-0.0407,-0.0391,-0.0459,-0.0516,-0.0519,-0.0512,-0.0533,-0.0526,-0.0523,-0.0676,-0.0546,-0.0546,-0.0546,0,0.0037,0.0034,0.0054,0.0053,0.0042,0.0052,0.0047,0.002,0.0027,-0.0022,-0.0018,-0.0114,-0.0138,-0.0252,-0.0365,-0.0387,-0.0478,-0.0524,-0.0565,-0.0563,-0.0568,-0.0566,-0.0715,-0.0602,-0.0602,-0.0602,-0.0602,0,0.0075,0.0091,0.0083,0.0096,0.0132,0.0104,0.0139,0.0116,0.0108,0.0136,0.0032,0.004,-0.013,-0.0199,-0.0328,-0.0439,-0.0448,-0.0553,-0.057,-0.0552,-0.0548,-0.0699,-0.0792,-0.0603,-0.0602,-0.0602,-0.0602,0,0.0126,0.0117,0.0143,0.0148,0.0157,0.0184,0.0212,0.0237,0.0214,0.025,0.0246,0.0165,0.008,-0.0077,-0.0239,-0.0364,-0.0572,-0.0528,-0.0478,-0.0489,-0.0678,-0.0769,-0.093,-0.0998,-0.0584,-0.0584,-0.0583,0,0.0152,0.0171,0.0195,0.0223,0.0231,0.0267,0.0302,0.0293,0.0325,0.034,0.0368,0.0309,0.0288,0.0062,-0.0167,-0.0368,-0.0535,-0.0494,-0.0547,-0.0679,-0.0794,-0.0872,-0.0923,-0.0536,-0.0535,-0.0534,-0.0534,0,0.0206,0.0216,0.024,0.03,0.0343,0.039,0.0437,0.0485,0.0496,0.0536,0.0589,0.0585,0.0386,0.0196,-0.0085,-0.0247,-0.0604,-0.0487,-0.0654,-0.0789,-0.0855,-0.0929,-0.0516,-0.0529,-0.0529,-0.053,-0.053,-0.053,0.0254,0.0284,0.0323,0.0381,0.0435,0.0511,0.0562,0.0628,0.0711,0.0786,0.0771,0.0793,0.0498,0.0121,-0.0109,-0.0535,-0.0566,-0.0679,-0.078,-0.0847,-0.0914,-0.0468,-0.0484,-0.0484,-0.0484,-0.0485,-0.0485,0,0.0311,0.0343,0.04,0.0468,0.0538,0.0553,0.065,0.0709,0.0826,0.0918,0.0973,0.0863,0.0497,0.0104,-0.0453,-0.0769,-0.0917,-0.0962,-0.1095,-0.1136,-0.0762,-0.0762,-0.0801,-0.0801,-0.0801,-0.0801,-0.0801,-0.08,0.0343,0.0404,0.0428,0.0545,0.0597,0.0688,0.0747,0.0848,0.093,0.1047,0.1085,0.1083,0.0803,-0.0216,-0.0943,-0.1124,-0.1363,-0.1411,-0.1544,-0.132,-0.1302,-0.1286,-0.1309,-0.1462,-0.1463,-0.1872,-0.1877,-0.188]}],[{"header":{"parameterUnit":"m.s-1","parameterCategory":2,"la1":30.2991,"la2":30.254,"lo1":-89.0895,"lo2":-89.0444,"dy":0.0017,"dx":0.0017,"nx":28,"ny":28,"refTime":"2023-09-21T03:00:00:Z","depth":"2","parameterNumber":2,"parameterNumberName":"U-component_of_CURRENTS"},"data":[0,0,0,0,0,0,0,0,0,0,0,0,0,0,0,0,0,0,0,0,0,0,0,0,0,0,0,0,0,0,0,0,0,0,0,0,0,0,0,0,0,0,0,0,0,0,0,0,0,0,0,0,0,0,0,0,0,0,0.2236,0.2237,0,0.2249,0.2249,0.2249,0.2249,0.2249,0.2249,0.2249,0.2251,0.2251,0.2251,0,0,0,0,0,0,0,0,0,0,0,0,0,0.2207,0.2208,0.2236,0.2237,0.2237,0.2249,0.2249,0.2249,0.2249,0.2249,0.2249,0.2249,0.2251,0.2251,0.2251,0,0,0,0,0,0,0,0,0,0,0,0,0,0.2219,0.2208,0.2236,0.2239,0.224,0.2249,0.2249,0.2249,0.2249,0.2249,0.2249,0.2249,0.2251,0.2251,0.2251,0.2253,0,0,0.2252,0.2252,0,0,0,0,0,0,0,0,0.2218,0.2219,0.2239,0.2239,0.224,0.2248,0.2239,0.225,0.2249,0.2244,0.2249,0.2249,0.225,0.2251,0.2251,0.2253,0.2253,0.2252,0.2252,0.2252,0.2252,0,0,0,0,0,0,0,0.2217,0.2219,0.224,0.2239,0.224,0.2239,0.224,0.2241,0.2246,0.2245,0.2245,0.2249,0.225,0.2251,0.2251,0.2253,0.2252,0.2252,0.2252,0.2252,0.2313,0.2315,0,0,0,0,0,0,0.2219,0.2218,0.2239,0.224,0.223,0.2239,0.2241,0.2245,0.2246,0.2247,0.2249,0.2249,0.2251,0.2251,0.2251,0.2305,0.2252,0.2252,0.2252,0.2312,0.2314,0.2315,0,0,0,0,0,0,0.2218,0.2221,0.2239,0.2231,0.2233,0.224,0.2244,0.2245,0.2256,0.225,0.225,0.226,0.2251,0.2251,0.2269,0.2303,0.2252,0.2252,0.231,0.2312,0.2314,0.2379,0,0,0,0,0,0,0.2217,0.222,0.2226,0.2231,0.2234,0.2255,0.2244,0.2245,0.2258,0.2259,0.226,0.2259,0.2251,0.2269,0.227,0.2302,0.2252,0.2308,0.2311,0.2314,0.2374,0.2383,0.239,0,0,0,0,0,0.2216,0.2223,0.2226,0.2229,0.224,0.2255,0.2257,0.226,0.2259,0.2269,0.2274,0.226,0.2288,0.2271,0.227,0.2304,0.2306,0.231,0.2313,0.2371,0.2381,0.239,0,0,0,0,0,0,0.2211,0.2224,0.2227,0.2237,0.2251,0.2256,0.2266,0.2269,0.2279,0.2282,0.2274,0.2274,0.2305,0.2295,0.2276,0.2331,0.2298,0.2301,0.2341,0.2351,0.2358,0.237,0.2252,0,0,0,0,0,0.2214,0.2225,0.2237,0.2247,0.2255,0.2263,0.2271,0.2276,0.2285,0.229,0.2291,0.23,0.2317,0.2326,0.2333,0.2359,0.2366,0.2383,0.239,0.2397,0.2407,0.2445,0.2458,0.2327,0.2327,0.2327,0,0,0.2213,0.2224,0.2229,0.2247,0.2257,0.2279,0.2268,0.2286,0.2309,0.2288,0.2318,0.2324,0.233,0.2363,0.2376,0.236,0.2441,0.2401,0.2407,0.2414,0.245,0.2463,0.2474,0.2329,0.2329,0.2328,0,0,0.2222,0.2231,0.2245,0.2262,0.2284,0.2295,0.2304,0.2319,0.2331,0.236,0.2358,0.2384,0.2401,0.2418,0.2429,0.2483,0.2479,0.2488,0.2538,0.2576,0.2587,0.2596,0.2633,0.2646,0.2494,0.2494,0.2494,0,0.2222,0.2242,0.2252,0.2275,0.2291,0.2306,0.2329,0.2349,0.2369,0.2385,0.2379,0.243,0.2432,0.2485,0.2509,0.2501,0.2522,0.2501,0.2586,0.2596,0.2605,0.264,0.2653,0.2498,0.2497,0.2497,0.2497,0,0.2243,0.2264,0.2277,0.2313,0.2332,0.2354,0.2383,0.241,0.2428,0.2446,0.2497,0.2509,0.254,0.2552,0.255,0.262,0.2614,0.2589,0.2562,0.2622,0.2655,0.2667,0.2503,0.2501,0.25,0.2499,0,0,0.2225,0.228,0.2285,0.2307,0.2352,0.2369,0.2419,0.2462,0.2502,0.2531,0.2582,0.2623,0.2632,0.2645,0.2651,0.2689,0.2772,0.2675,0.2676,0.2711,0.2866,0.2808,0.2816,0.2765,0.2768,0.2769,0.2867,0,0.2239,0.2284,0.2309,0.2356,0.238,0.2416,0.2461,0.2505,0.2547,0.2602,0.2635,0.2682,0.2668,0.2694,0.2734,0.2762,0.2807,0.2748,0.2803,0.2805,0.2745,0.2828,0.2617,0.2682,0.2879,0.2881,0.2883,0,0.2245,0.2278,0.2319,0.2379,0.2394,0.2429,0.2502,0.2546,0.2629,0.2665,0.2724,0.2746,0.2818,0.2791,0.2881,0.2848,0.287,0.2886,0.2889,0.2821,0.277,0.2652,0.2697,0.2903,0.2901,0.29,0.2898,0,0.2217,0.2281,0.2312,0.2333,0.2405,0.2438,0.2485,0.2564,0.2612,0.2712,0.2759,0.2833,0.2884,0.2924,0.2957,0.2932,0.305,0.3009,0.298,0.2976,0.2799,0.2775,0.3078,0.3078,0.3078,0.3078,0.3077,0,0.2211,0.2237,0.2306,0.2324,0.237,0.243,0.2494,0.2557,0.2658,0.2709,0.279,0.2845,0.2923,0.2986,0.3,0.3037,0.3085,0.3013,0.3006,0.2816,0.2794,0.2976,0.2963,0.3081,0.308,0.308,0.3079,0,0.2165,0.2212,0.2251,0.233,0.2355,0.2389,0.2492,0.2539,0.2649,0.2725,0.2759,0.2887,0.2963,0.3025,0.3104,0.3091,0.3124,0.3119,0.2896,0.2859,0.3016,0.3005,0.3107,0.3106,0.3105,0.3104,0.3103,0,0.2144,0.2161,0.2235,0.2255,0.229,0.2355,0.2393,0.2516,0.2567,0.2724,0.275,0.2877,0.2923,0.3045,0.306,0.3098,0.3121,0.2907,0.2813,0.3041,0.3024,0.3014,0.3005,0.2611,0.2606,0.2603,0.26,0,0.2098,0.2125,0.2155,0.2197,0.2237,0.228,0.2352,0.2391,0.2518,0.2594,0.2684,0.2745,0.2878,0.2833,0.2907,0.2888,0.2883,0.2832,0.3142,0.2632,0.258,0.256,0.2566,0.2566,0.2569,0.2572,0.2574,0.2575,0.2054,0.2059,0.2097,0.2128,0.2165,0.2183,0.219,0.2264,0.2325,0.2395,0.2524,0.2547,0.2628,0.2633,0.2582,0.2562,0.2748,0.262,0.2629,0.2643,0.2564,0.2513,0.2472,0.2474,0.2477,0.2479,0.2481,0,0.1984,0.2001,0.2025,0.2046,0.2038,0.2098,0.2134,0.2115,0.2125,0.2222,0.2279,0.2154,0.2159,0.2224,0.2165,0.2202,0.2157,0.2093,0.2006,0.2044,0.2076,0.1963,0.1715,0.1712,0.1709,0.1706,0,0,0.1948,0.1937,0.1947,0.1908,0.1922,0.188,0.1876,0.1863,0.1905,0.1886,0.1892,0.2056,0.2174,0.1902,0.1902,0.1791,0.189,0.1726,0.2352,0.2288,0.2316,0.2408,0.2282,0,0,0,0,0]},{"header":{"parameterUnit":"m.s-1","parameterCategory":2,"la1":30.2991,"la2":30.254,"lo1":-89.0895,"lo2":-89.0444,"dy":0.0017,"dx":0.0017,"nx":28,"ny":28,"refTime":"2023-09-21T03:00:00:Z","depth":"2","parameterNumber":3,"parameterNumberName":"V-component_of_CURRENTS"},"data":[0,0,0,0,0,0,0,0,0,0,0,0,0,0,0,0,0,0,0,0,0,0,0,0,0,0,0,0,0,0,0,0,0,0,0,0,0,0,0,0,0,0,0,0,0,0,0,0,0,0,0,0,0,0,0,0,0,0,-0.0107,-0.0108,0,-0.0176,-0.0177,-0.0178,-0.0221,-0.0222,-0.0222,-0.0222,-0.0301,-0.0303,-0.0305,0,0,0,0,0,0,0,0,0,0,0,0,0,-0.0055,-0.0056,-0.0107,-0.0108,-0.0109,-0.0176,-0.0177,-0.0178,-0.0221,-0.0222,-0.0222,-0.0222,-0.03,-0.0303,-0.0305,0,0,0,0,0,0,0,0,0,0,0,0,0,-0.0097,-0.0056,-0.0107,-0.0137,-0.0141,-0.0176,-0.0177,-0.0179,-0.0221,-0.0222,-0.0222,-0.0222,-0.0299,-0.0302,-0.0305,-0.032,0,0,-0.0314,-0.0316,0,0,0,0,0,0,0,0,-0.0095,-0.0099,-0.0132,-0.0135,-0.0139,-0.0189,-0.0188,-0.0226,-0.0221,-0.0192,-0.0222,-0.0222,-0.0263,-0.0269,-0.0284,-0.0324,-0.0327,-0.0315,-0.0316,-0.0318,-0.0319,0,0,0,0,0,0,0,-0.0092,-0.0097,-0.0136,-0.0133,-0.0137,-0.0162,-0.0168,-0.0196,-0.0227,-0.0195,-0.0198,-0.0203,-0.0266,-0.0281,-0.0286,-0.0328,-0.0315,-0.0317,-0.0319,-0.032,-0.0393,-0.0393,0,0,0,0,0,0,-0.0078,-0.0094,-0.0134,-0.0138,-0.0116,-0.0163,-0.0169,-0.0174,-0.0227,-0.0234,-0.0203,-0.0205,-0.0276,-0.0282,-0.0289,-0.0312,-0.0318,-0.032,-0.0322,-0.0392,-0.0393,-0.0393,0,0,0,0,0,0,-0.0077,-0.0081,-0.0131,-0.0117,-0.0124,-0.0163,-0.0168,-0.0175,-0.019,-0.0233,-0.0241,-0.021,-0.0276,-0.0285,-0.0316,-0.0315,-0.0322,-0.0325,-0.0392,-0.0392,-0.0393,-0.0357,0,0,0,0,0,0,-0.0075,-0.008,-0.008,-0.0115,-0.0125,-0.0145,-0.0168,-0.0176,-0.0193,-0.0196,-0.0242,-0.0249,-0.0277,-0.0312,-0.0319,-0.032,-0.0327,-0.0392,-0.0392,-0.0393,-0.0358,-0.0356,-0.0354,0,0,0,0,0,-0.0073,-0.007,-0.008,-0.0085,-0.0123,-0.0145,-0.0152,-0.0181,-0.0193,-0.0196,-0.0232,-0.0248,-0.0319,-0.0314,-0.0323,-0.0324,-0.0392,-0.0392,-0.0393,-0.0359,-0.0356,-0.0354,0,0,0,0,0,0,-0.0048,-0.0075,-0.0087,-0.0092,-0.0113,-0.0152,-0.0158,-0.0177,-0.0209,-0.0213,-0.0253,-0.0264,-0.0289,-0.0313,-0.0307,-0.0346,-0.0357,-0.0359,-0.0328,-0.0326,-0.0324,-0.0308,-0.0329,0,0,0,0,0,-0.0041,-0.0046,-0.0075,-0.0079,-0.0088,-0.0122,-0.0135,-0.0154,-0.0185,-0.0199,-0.0232,-0.0267,-0.0298,-0.0316,-0.0344,-0.0368,-0.0384,-0.0374,-0.0372,-0.037,-0.0363,-0.0394,-0.0394,-0.0394,-0.0394,-0.0394,0,0,-0.0033,-0.0047,-0.0051,-0.0074,-0.0094,-0.01,-0.0131,-0.0146,-0.0152,-0.0203,-0.0223,-0.026,-0.0302,-0.0329,-0.0342,-0.0348,-0.0377,-0.037,-0.0368,-0.0363,-0.0394,-0.0394,-0.0394,-0.0394,-0.0394,-0.0394,0,0,-0.0014,-0.003,-0.0027,-0.004,-0.0063,-0.0084,-0.0085,-0.0121,-0.0137,-0.0164,-0.02,-0.0237,-0.0284,-0.0314,-0.0336,-0.034,-0.0364,-0.035,-0.0331,-0.0361,-0.0361,-0.0361,-0.0373,-0.0374,-0.0351,-0.0351,-0.0351,0,-0.0002,-0.0002,-0.0029,-0.0027,-0.0032,-0.0072,-0.0066,-0.0089,-0.0131,-0.0139,-0.0163,-0.0237,-0.0276,-0.0307,-0.0316,-0.0335,-0.0352,-0.0335,-0.0358,-0.0358,-0.0359,-0.0371,-0.0373,-0.0349,-0.035,-0.035,-0.035,0,0.002,0.002,0.0022,0.0013,0.0003,0.0001,-0.0028,-0.0042,-0.007,-0.0095,-0.0132,-0.0196,-0.0238,-0.026,-0.0295,-0.032,-0.0329,-0.0349,-0.036,-0.0357,-0.037,-0.0372,-0.0347,-0.0348,-0.0348,-0.0349,0,0,0.005,0.004,0.0042,0.0049,0.0026,0.0024,0.0016,-0.0,0.0001,-0.0055,-0.0062,-0.0138,-0.0176,-0.0204,-0.0254,-0.029,-0.0318,-0.0324,-0.0326,-0.0328,-0.0373,-0.0367,-0.0369,-0.0346,-0.0347,-0.0347,-0.0375,0,0.0077,0.0096,0.008,0.0099,0.0107,0.0078,0.0079,0.006,0.003,0.0012,-0.0057,-0.0088,-0.0153,-0.0179,-0.0227,-0.0291,-0.0325,-0.0307,-0.0381,-0.0383,-0.0373,-0.0373,-0.0345,-0.0367,-0.0378,-0.0379,-0.0379,0,0.0107,0.0117,0.0142,0.0152,0.0154,0.0156,0.0156,0.0151,0.0117,0.0089,0.0037,-0.0012,-0.0077,-0.0133,-0.0241,-0.0228,-0.0297,-0.035,-0.0353,-0.0361,-0.0382,-0.0375,-0.0372,-0.0384,-0.0384,-0.0384,-0.0383,0,0.0151,0.0162,0.0186,0.0189,0.0191,0.0197,0.0195,0.0176,0.0188,0.0138,0.0136,0.0047,0.0011,-0.0094,-0.0206,-0.0228,-0.0313,-0.0353,-0.041,-0.0409,-0.0406,-0.0404,-0.0426,-0.0426,-0.0426,-0.0426,-0.0426,0,0.0189,0.021,0.0209,0.0224,0.0261,0.0243,0.0275,0.0256,0.0247,0.0278,0.0179,0.0181,0.0017,-0.0049,-0.0171,-0.0286,-0.0285,-0.04,-0.0418,-0.0391,-0.0388,-0.0423,-0.0422,-0.0427,-0.0427,-0.0427,-0.0426,0,0.0232,0.023,0.0262,0.0273,0.0282,0.0308,0.0334,0.0359,0.0335,0.0369,0.036,0.0286,0.0197,0.0049,-0.0105,-0.0222,-0.0342,-0.0384,-0.033,-0.0342,-0.043,-0.0427,-0.0457,-0.0457,-0.0457,-0.0457,-0.0458,0,0.0255,0.0276,0.0305,0.0332,0.0338,0.0372,0.0405,0.0399,0.0432,0.0448,0.0476,0.0407,0.0374,0.0153,-0.0063,-0.0261,-0.0305,-0.0369,-0.0416,-0.0419,-0.0434,-0.0431,-0.0428,-0.0394,-0.0393,-0.0393,-0.0393,0,0.0301,0.0309,0.0336,0.0393,0.0431,0.0481,0.0524,0.0568,0.0584,0.0614,0.0659,0.0642,0.0442,0.0247,-0.003,-0.0169,-0.034,-0.0367,-0.0384,-0.0388,-0.0362,-0.0375,-0.0374,-0.0389,-0.039,-0.039,-0.039,-0.039,0.0337,0.0365,0.0403,0.0457,0.051,0.0583,0.063,0.069,0.0762,0.0817,0.0803,0.0775,0.056,0.0207,-0.0033,-0.0299,-0.0303,-0.0404,-0.0405,-0.0406,-0.0391,-0.0366,-0.0391,-0.0391,-0.0392,-0.0392,-0.0392,0,0.0381,0.0411,0.0465,0.053,0.0595,0.0613,0.0708,0.0756,0.0851,0.0906,0.0933,0.0745,0.053,0.0272,-0.0115,-0.0344,-0.0376,-0.0417,-0.0407,-0.0408,-0.041,-0.0396,-0.0397,-0.0397,-0.0398,-0.0399,0,0,0.0406,0.0461,0.0485,0.059,0.0639,0.0723,0.0779,0.0856,0.0908,0.096,0.0952,0.0917,0.0617,0.0343,0.0036,-0.0186,-0.0253,-0.0233,-0.0203,-0.0157,-0.0156,-0.0373,-0.0348,0,0,0,0,0]}],[{"header":{"parameterUnit":"m.s-1","parameterCategory":2,"la1":30.2991,"la2":30.254,"lo1":-89.0895,"lo2":-89.0444,"dy":0.0017,"dx":0.0017,"nx":28,"ny":28,"refTime":"2023-09-21T03:00:00:Z","depth":"4","parameterNumber":2,"parameterNumberName":"U-component_of_CURRENTS"},"data":[0,0,0,0,0,0,0,0,0,0,0,0,0,0,0,0,0,0,0,0,0,0,0,0,0,0,0,0,0,0,0,0,0,0,0,0,0,0,0,0,0,0,0,0,0,0,0,0,0,0,0,0,0,0,0,0,0,0,0.1469,0.147,0,0.151,0.151,0.151,0.1555,0.1556,0.1557,0.1558,0.1609,0.1609,0.161,0,0,0,0,0,0,0,0,0,0,0,0,0,0.1413,0.1414,0.1469,0.147,0.147,0.151,0.151,0.1511,0.1555,0.1556,0.1557,0.1558,0.1608,0.1609,0.161,0,0,0,0,0,0,0,0,0,0,0,0,0,0.1442,0.1414,0.1469,0.1499,0.1502,0.151,0.151,0.1511,0.1555,0.1556,0.1557,0.1558,0.1608,0.1609,0.161,0.1591,0,0,0.1613,0.1613,0,0,0,0,0,0,0,0,0.1441,0.1444,0.1494,0.1497,0.15,0.153,0.1509,0.1539,0.1555,0.1533,0.1558,0.1559,0.1584,0.1587,0.1589,0.1594,0.1596,0.1613,0.1613,0.1614,0.1614,0,0,0,0,0,0,0,0.1439,0.1443,0.1483,0.1494,0.1498,0.1505,0.151,0.1515,0.155,0.1535,0.1539,0.1546,0.1585,0.1588,0.1591,0.1597,0.1613,0.1614,0.1614,0.1615,0.1683,0.1685,0,0,0,0,0,0,0.1437,0.1441,0.1482,0.1485,0.1475,0.1505,0.1511,0.1518,0.155,0.1556,0.1545,0.1548,0.1586,0.1589,0.1592,0.1663,0.1614,0.1615,0.1615,0.1682,0.1684,0.1685,0,0,0,0,0,0,0.1435,0.144,0.1481,0.1465,0.1471,0.1505,0.1512,0.1518,0.1555,0.1557,0.1564,0.1579,0.1587,0.1591,0.1627,0.1661,0.1615,0.1616,0.1681,0.1683,0.1684,0.1745,0,0,0,0,0,0,0.1434,0.1439,0.1459,0.1465,0.1472,0.1507,0.1511,0.1518,0.1556,0.1561,0.1588,0.1592,0.1588,0.1626,0.1628,0.1662,0.1617,0.1679,0.1682,0.1684,0.1741,0.1748,0.1755,0,0,0,0,0,0.1431,0.1447,0.1459,0.1465,0.1492,0.1508,0.1512,0.1538,0.1557,0.1575,0.1598,0.1593,0.1643,0.1627,0.163,0.1665,0.1678,0.1681,0.1684,0.1738,0.1747,0.1754,0,0,0,0,0,0,0.1433,0.1453,0.1467,0.1489,0.1509,0.1517,0.1541,0.1556,0.1587,0.1603,0.1606,0.1611,0.1656,0.165,0.1633,0.1692,0.1661,0.1665,0.1702,0.171,0.1717,0.1708,0.1617,0,0,0,0,0,0.1441,0.1462,0.1477,0.15,0.1513,0.1533,0.155,0.1567,0.1587,0.1604,0.1622,0.1643,0.1662,0.168,0.1691,0.172,0.172,0.1745,0.1752,0.1758,0.1753,0.1785,0.1794,0.1695,0.1695,0.1695,0,0,0.1448,0.1463,0.1476,0.1503,0.1522,0.1541,0.1547,0.1581,0.1603,0.1603,0.165,0.1668,0.1675,0.1712,0.1731,0.1717,0.179,0.1762,0.1767,0.1758,0.1789,0.1798,0.1807,0.1697,0.1696,0.1696,0,0,0.146,0.1488,0.1506,0.1526,0.156,0.157,0.1587,0.1614,0.1638,0.1677,0.1687,0.1725,0.1755,0.1766,0.1775,0.1824,0.1824,0.1838,0.1868,0.1901,0.1909,0.1916,0.1943,0.1952,0.1843,0.1843,0.1843,0,0.1471,0.1491,0.1515,0.1536,0.1556,0.1587,0.1607,0.1631,0.1668,0.1691,0.1704,0.1765,0.1777,0.1815,0.1838,0.184,0.1858,0.1838,0.191,0.1917,0.1923,0.1949,0.1958,0.1847,0.1846,0.1846,0.1846,0,0.1484,0.1514,0.1529,0.1564,0.1589,0.1615,0.1645,0.1682,0.172,0.1741,0.1801,0.1822,0.1859,0.1875,0.1874,0.1929,0.1927,0.1914,0.1888,0.1937,0.1961,0.197,0.1851,0.185,0.1849,0.1848,0,0,0.1469,0.1526,0.1535,0.1557,0.1608,0.1624,0.1673,0.1714,0.1755,0.1802,0.185,0.1894,0.192,0.193,0.1942,0.197,0.204,0.1969,0.1969,0.1994,0.2118,0.2005,0.2003,0.2048,0.2049,0.2051,0.2122,0,0.1474,0.1513,0.1542,0.1586,0.1607,0.1655,0.1694,0.1742,0.1792,0.1848,0.1885,0.1939,0.1936,0.1975,0.2002,0.2031,0.2063,0.2021,0.2067,0.2068,0.1961,0.2009,0.2055,0.2129,0.2131,0.2132,0.2133,0,0.1468,0.1498,0.1539,0.1598,0.1614,0.1652,0.1727,0.1769,0.1848,0.189,0.1951,0.1985,0.2046,0.2034,0.2107,0.2086,0.2108,0.2121,0.2125,0.1998,0.197,0.2066,0.2148,0.2147,0.2146,0.2145,0.2144,0,0.1429,0.1491,0.1526,0.1547,0.1619,0.1661,0.1711,0.1791,0.1832,0.1932,0.198,0.2045,0.2099,0.2133,0.2175,0.2156,0.2243,0.2218,0.2133,0.2126,0.2179,0.217,0.2262,0.2262,0.2262,0.2262,0.2262,0,0.1403,0.1434,0.152,0.1538,0.159,0.1655,0.1721,0.1784,0.1872,0.1921,0.2008,0.205,0.2131,0.2187,0.2203,0.2196,0.2273,0.214,0.2135,0.2205,0.2198,0.2186,0.2176,0.2265,0.2264,0.2264,0.2263,0,0.1347,0.1403,0.1449,0.1539,0.1572,0.1617,0.1719,0.1762,0.1865,0.1936,0.1974,0.208,0.2156,0.2218,0.2285,0.2227,0.2236,0.2215,0.2301,0.23,0.2089,0.2082,0.2115,0.2111,0.2108,0.2106,0.2104,0,0.1317,0.1337,0.144,0.1472,0.152,0.1595,0.1642,0.1747,0.1789,0.1932,0.1951,0.2072,0.2131,0.2132,0.2206,0.2234,0.2208,0.2196,0.2115,0.2081,0.2074,0.2071,0.2068,0.2099,0.2098,0.2098,0.2097,0,0.1258,0.1312,0.1352,0.142,0.1479,0.1524,0.1604,0.1616,0.1737,0.1844,0.1886,0.1928,0.201,0.2055,0.2102,0.2111,0.2189,0.2164,0.2169,0.2094,0.2063,0.2058,0.2058,0.2087,0.2088,0.2089,0.209,0,0.1221,0.1237,0.1303,0.135,0.1417,0.1437,0.1484,0.1532,0.1581,0.1733,0.1744,0.1874,0.1986,0.1994,0.2032,0.2042,0.2003,0.1924,0.1941,0.1953,0.1867,0.1801,0.1743,0,0,0,0,0,0.1173,0.1183,0.1225,0.1266,0.1328,0.1368,0.1448,0.1497,0.1608,0.1597,0.1663,0.1731,0.1788,0.1852,0.183,0.1969,0.2016,0.1935,0.1935,0.2031,0.2043,0.1956,0,0,0,0,0,0,0.1141,0.118,0.1193,0.1186,0.1201,0.1253,0.13,0.1377,0.1371,0.1495,0.1535,0.1635,0.1717,0.1791,0.1802,0.1823,0.1789,0.2018,0.2014,0.2024,0.2035,0.2044,0.1959,0,0,0,0,0]},{"header":{"parameterUnit":"m.s-1","parameterCategory":2,"la1":30.2991,"la2":30.254,"lo1":-89.0895,"lo2":-89.0444,"dy":0.0017,"dx":0.0017,"nx":28,"ny":28,"refTime":"2023-09-21T03:00:00:Z","depth":"4","parameterNumber":3,"parameterNumberName":"V-component_of_CURRENTS"},"data":[0,0,0,0,0,0,0,0,0,0,0,0,0,0,0,0,0,0,0,0,0,0,0,0,0,0,0,0,0,0,0,0,0,0,0,0,0,0,0,0,0,0,0,0,0,0,0,0,0,0,0,0,0,0,0,0,0,0,0.0027,0.0026,0,-0.0015,-0.0015,-0.0016,-0.0044,-0.0044,-0.0044,-0.0044,-0.0091,-0.0092,-0.0093,0,0,0,0,0,0,0,0,0,0,0,0,0,0.0056,0.0056,0.0027,0.0026,0.0026,-0.0015,-0.0015,-0.0016,-0.0044,-0.0044,-0.0044,-0.0044,-0.009,-0.0092,-0.0093,0,0,0,0,0,0,0,0,0,0,0,0,0,0.0032,0.0056,0.0027,0.0007,0.0005,-0.0015,-0.0015,-0.0016,-0.0044,-0.0044,-0.0044,-0.0045,-0.009,-0.0092,-0.0093,-0.0098,0,0,-0.0098,-0.0099,0,0,0,0,0,0,0,0,0.0033,0.0031,0.0011,0.0009,0.0006,-0.0024,-0.0022,-0.0044,-0.0044,-0.0026,-0.0044,-0.0045,-0.0069,-0.0072,-0.008,-0.0101,-0.0102,-0.0098,-0.0099,-0.01,-0.0101,0,0,0,0,0,0,0,0.0035,0.0032,0.001,0.001,0.0007,-0.0008,-0.0012,-0.0026,-0.0046,-0.0027,-0.0029,-0.0033,-0.007,-0.0078,-0.0081,-0.0103,-0.0098,-0.01,-0.0101,-0.0101,-0.0116,-0.0115,0,0,0,0,0,0,0.0042,0.0034,0.0011,0.0009,0.002,-0.0008,-0.0013,-0.0014,-0.0045,-0.005,-0.0033,-0.0034,-0.0075,-0.0079,-0.0083,-0.0076,-0.01,-0.0102,-0.0102,-0.0117,-0.0116,-0.0115,0,0,0,0,0,0,0.0043,0.0041,0.0013,0.002,0.0016,-0.0008,-0.0011,-0.0015,-0.0023,-0.005,-0.0055,-0.0037,-0.0076,-0.008,-0.0092,-0.0078,-0.0102,-0.0104,-0.0117,-0.0116,-0.0116,-0.0072,0,0,0,0,0,0,0.0044,0.0042,0.0043,0.0021,0.0016,0.0007,-0.0011,-0.0016,-0.0025,-0.0028,-0.0054,-0.0059,-0.0076,-0.009,-0.0094,-0.0081,-0.0105,-0.0118,-0.0117,-0.0116,-0.0074,-0.0069,-0.0065,0,0,0,0,0,0.0046,0.005,0.0044,0.0041,0.0019,0.0007,0.0003,-0.0016,-0.0025,-0.0025,-0.0043,-0.0058,-0.0086,-0.0091,-0.0096,-0.0083,-0.0119,-0.0117,-0.0116,-0.0076,-0.007,-0.0066,0,0,0,0,0,0,0.0064,0.0047,0.004,0.0039,0.0027,0.0003,0.0001,-0.0013,-0.0028,-0.003,-0.0056,-0.0061,-0.0067,-0.0081,-0.0086,-0.0083,-0.0102,-0.0102,-0.007,-0.0065,-0.0061,-0.0043,-0.0106,0,0,0,0,0,0.0069,0.0069,0.005,0.0051,0.0046,0.0024,0.0017,0.0004,-0.0012,-0.002,-0.0039,-0.0055,-0.0066,-0.007,-0.0085,-0.0084,-0.0106,-0.0078,-0.0073,-0.007,-0.0058,-0.0082,-0.0079,-0.0111,-0.0111,-0.0111,0,0,0.0076,0.0068,0.0067,0.0055,0.0043,0.0047,0.0019,0.0012,0.0017,-0.0022,-0.0022,-0.0046,-0.0064,-0.0064,-0.0067,-0.0073,-0.0074,-0.0068,-0.0065,-0.0055,-0.0081,-0.0078,-0.0075,-0.011,-0.011,-0.011,0,0,0.0094,0.0084,0.0091,0.0085,0.0072,0.0062,0.0062,0.004,0.0033,0.0028,0.0003,-0.001,-0.0027,-0.0037,-0.0043,-0.0024,-0.0056,-0.0028,0.0012,-0.0011,-0.0009,-0.0007,-0.0039,-0.004,-0.002,-0.002,-0.002,0,0.0104,0.0112,0.0091,0.0099,0.0101,0.0073,0.0086,0.0077,0.0055,0.0054,0.0037,0.0011,-0.001,-0.0005,0.0003,-0.0013,-0.0036,-0.0006,-0.0006,-0.0004,-0.0003,-0.0037,-0.0039,-0.0018,-0.0018,-0.0018,-0.0018,0,0.0128,0.0136,0.0141,0.0146,0.0144,0.015,0.0137,0.0134,0.0121,0.011,0.0103,0.007,0.0058,0.0049,0.0033,0.0036,0.0013,-0.0004,-0.0018,0.0003,-0.0034,-0.0037,-0.0014,-0.0015,-0.0016,-0.0017,0,0,0.0151,0.0158,0.0161,0.0174,0.017,0.0174,0.0185,0.0188,0.02,0.0174,0.0184,0.016,0.0135,0.0127,0.0098,0.0082,0.0063,0.005,0.0047,0.0019,0.0003,-0.0021,-0.0027,0.0044,0.0044,0.0044,-0.0029,0,0.0179,0.0207,0.0202,0.0235,0.025,0.0237,0.0254,0.0252,0.0242,0.0242,0.021,0.0203,0.0167,0.0158,0.0138,0.008,0.0059,0.0083,-0.0013,-0.0016,-0.0039,-0.003,0.0044,-0.0032,-0.0032,-0.0033,-0.0033,0,0.0207,0.0224,0.0259,0.0286,0.0292,0.0308,0.0328,0.0339,0.0332,0.0324,0.0307,0.0272,0.0246,0.0209,0.013,0.0146,0.0084,0.0037,0.0033,-0.0003,-0.0044,-0.0055,-0.0039,-0.0039,-0.0038,-0.0038,-0.0037,0,0.0235,0.0266,0.0298,0.0306,0.0329,0.0346,0.0359,0.0363,0.0381,0.0371,0.0374,0.033,0.0306,0.0232,0.0129,0.0128,0.0033,0.0015,-0.0064,-0.0068,-0.0045,-0.0046,-0.0038,-0.0037,-0.0037,-0.0037,-0.0037,0,0.0267,0.0294,0.0315,0.0332,0.0378,0.0379,0.0422,0.0428,0.0441,0.0465,0.0417,0.0413,0.0311,0.0238,0.0145,0.0029,0.004,-0.0054,-0.0084,-0.0026,-0.0024,-0.0048,-0.0048,-0.004,-0.0039,-0.0039,-0.0038,0,0.0287,0.0301,0.0341,0.0375,0.0391,0.0421,0.0467,0.0495,0.0502,0.0527,0.0526,0.0473,0.0373,0.0257,0.0126,0.005,-0.0059,-0.0105,-0.0039,-0.0065,-0.0149,-0.0146,-0.0195,-0.0196,-0.0197,-0.0198,-0.0199,0,0.0298,0.032,0.037,0.0397,0.0413,0.0459,0.0495,0.0524,0.0551,0.056,0.057,0.049,0.0433,0.0238,0.0109,-0.0074,-0.0101,-0.0157,-0.0144,-0.0138,-0.0163,-0.0158,-0.0154,-0.0201,-0.0201,-0.0201,-0.0202,0,0.0319,0.0336,0.0367,0.0422,0.0464,0.0517,0.0563,0.0589,0.0618,0.0629,0.0606,0.0507,0.039,0.0235,0.0087,-0.0043,-0.0117,-0.0169,-0.0167,-0.0156,-0.0146,-0.0169,-0.0163,-0.0206,-0.0205,-0.0205,-0.0204,0,0.0332,0.0355,0.0393,0.0442,0.0499,0.0549,0.0577,0.0605,0.0636,0.0643,0.0631,0.0514,0.0451,0.025,0.0116,-0.0018,-0.0051,-0.0084,-0.0088,-0.0085,-0.0034,-0.0006,-0.0042,0,0,0,0,0,0.0341,0.0363,0.0409,0.046,0.0517,0.055,0.0611,0.0633,0.0661,0.0652,0.0646,0.0537,0.0344,0.0263,0.0123,0.0077,-0.0088,-0.0091,-0.0131,-0.0228,-0.0223,-0.0185,0,0,0,0,0,0,0.0345,0.0385,0.0405,0.0466,0.05,0.0566,0.0606,0.0627,0.062,0.063,0.0529,0.0498,0.0305,0.0419,0.0118,0.0077,0.0034,-0.0177,-0.018,-0.023,-0.0226,-0.0222,-0.0181,0,0,0,0,0]}]]